Canadian, TX

10:19 AM CST on December 12, 2019 (GMT -0600)
Hemphill County

Weather History for KHHF - October, 2019

Change the Weather History Date:

Sunday, October 13, 2019

  Actual Average (KPPA) Record (KPPA)
Temperature  
Mean Temperature 57 °F -  
Max Temperature 79 °F 75 °F 90 °F (1975)
Min Temperature 36 °F 46 °F 29 °F (1969)
Degree Days  
Heating Degree Days 8    
Growing Degree Days 7 (Base 50)    
Moisture  
Dew Point 37 °F    
Average Humidity 54    
Maximum Humidity 88    
Minimum Humidity 23    
Precipitation  
Precipitation 0.00 in - - ()
Sea Level Pressure  
Sea Level Pressure 29.93 in    
Wind  
Wind Speed 3 mph (SW)    
Max Wind Speed 9 mph    
Max Gust Speed -    
Visibility 10 miles    
Events      
Averages and records for this station are not official NWS values.
T = Trace of Precipitation, MM = Missing Value Source: NWS Daily Summary

Daily Weather History Graph

Daily Weather History Graph

Search for Another Location

Airport or City:

Astronomy

Oct. 13, 2019 Rise Set
Actual Time 7:46 AM CDT 7:08 PM CDT
Civil Twilight 7:20 AM CDT 7:34 PM CDT
Nautical Twilight 6:50 AM CDT 8:04 PM CDT
Astronomical Twilight 6:21 AM CDT 8:33 PM CDT
Moon 7:30 PM CDT (10/13) 7:24 AM CDT (10/13)
Length of Visible Light 12h 13m
Length of Day
11h 22m
Full, 100% of the Moon is Illuminated
Oct 13
Full
Oct 13
Full
Oct 21
Last Quarter
Oct 27
New
Nov 4
First Quarter

Hourly Weather History & Observations

Time (CDT) Temp. Windchill Dew Point Humidity Pressure Visibility Wind Dir Wind Speed Gust Speed Precip Events Conditions
12:15 AM 49.8 °F - 29.8 °F 46% 29.95 in 10.0 mi WSW 8.1 mph - N/A   Clear
12:35 AM 49.6 °F - 30.0 °F 47% 29.95 in 10.0 mi SW 6.9 mph - N/A   Clear
12:55 AM 48.0 °F - 30.2 °F 50% 29.94 in 10.0 mi WSW 6.9 mph - N/A   Clear
1:15 AM 47.8 °F - 30.4 °F 51% 29.94 in 10.0 mi WSW 6.9 mph - N/A   Clear
1:35 AM 47.3 °F - 30.4 °F 52% 29.94 in 10.0 mi SW 5.8 mph - N/A   Clear
1:55 AM 46.2 °F 43.3 °F 30.9 °F 55% 29.94 in 10.0 mi SW 5.8 mph - N/A   Clear
2:15 AM 43.7 °F - 31.6 °F 63% 29.94 in 10.0 mi Calm Calm - N/A   Clear
2:35 AM 44.8 °F - 31.8 °F 60% 29.94 in 10.0 mi Calm Calm - N/A   Clear
2:55 AM 44.6 °F - 31.8 °F 61% 29.94 in 10.0 mi Calm Calm - N/A   Clear
3:15 AM 44.4 °F - 32.0 °F 62% 29.93 in 10.0 mi Calm Calm - N/A   Clear
3:35 AM 41.9 °F - 32.7 °F 70% 29.92 in 10.0 mi Calm Calm - N/A   Clear
3:55 AM 41.9 °F - 32.4 °F 69% 29.92 in 10.0 mi Calm Calm - N/A   Clear
4:15 AM 41.7 °F - 32.2 °F 69% 29.91 in 10.0 mi Calm Calm - N/A   Clear
4:35 AM 40.1 °F - 32.9 °F 75% 29.91 in 10.0 mi Calm Calm - N/A   Clear
4:55 AM 40.5 °F - 32.5 °F 73% 29.91 in 10.0 mi Calm Calm - N/A   Clear
5:15 AM 42.3 °F 38.6 °F 32.0 °F 67% 29.91 in 10.0 mi SW 5.8 mph - N/A   Clear
5:35 AM 41.2 °F 39.2 °F 32.4 °F 71% 29.91 in 10.0 mi WNW 3.5 mph - N/A   Clear
5:55 AM 42.8 °F - 32.2 °F 66% 29.91 in 10.0 mi Calm Calm - N/A   Clear
6:15 AM 39.9 °F - 33.1 °F 77% 29.91 in 10.0 mi Calm Calm - N/A   Clear
6:35 AM 43.5 °F - 32.7 °F 66% 29.92 in 10.0 mi Calm Calm - N/A   Clear
6:55 AM 37.9 °F - 32.2 °F 80% 29.92 in 10.0 mi Calm Calm - N/A   Clear
7:15 AM 37.4 °F - 32.2 °F 81% 29.92 in 10.0 mi Calm Calm - N/A   Clear
7:35 AM 38.5 °F - 32.4 °F 79% 29.92 in 10.0 mi Calm Calm - N/A   Clear
7:55 AM 37.8 °F - 32.2 °F 80% 29.92 in 10.0 mi Calm Calm - N/A   Clear
8:15 AM 36.7 °F - 32.4 °F 84% 29.92 in 10.0 mi Calm Calm - N/A   Clear
8:35 AM 38.5 °F - 33.8 °F 83% 29.93 in 10.0 mi Calm Calm - N/A   Clear
8:55 AM 42.4 °F - 36.3 °F 79% 29.93 in 10.0 mi Calm Calm - N/A   Clear
9:15 AM 45.5 °F - 35.6 °F 68% 29.95 in 10.0 mi Calm Calm - N/A   Clear
9:35 AM 49.3 °F - 36.1 °F 61% 29.95 in 10.0 mi Calm Calm - N/A   Clear
9:55 AM 52.7 °F - 35.6 °F 52% 29.95 in 10.0 mi Calm Calm - N/A   Clear
10:35 AM 59.5 °F - 38.8 °F 46% 29.95 in 10.0 mi Calm Calm - N/A   Clear
10:55 AM 63.5 °F - 38.8 °F 40% 29.95 in 10.0 mi WSW 6.9 mph - N/A   Clear
11:15 AM 64.9 °F - 39.2 °F 39% 29.96 in 10.0 mi West 8.1 mph - N/A   Clear
11:35 AM 65.3 °F - 38.8 °F 38% 29.95 in 10.0 mi Calm Calm - N/A   Clear
11:55 AM 67.3 °F - 39.2 °F 36% 29.95 in 10.0 mi South 4.6 mph - N/A   Clear
12:15 PM 68.4 °F - 39.0 °F 34% 29.95 in 10.0 mi SSW 3.5 mph - N/A   Clear
12:35 PM 69.8 °F - 39.4 °F 33% 29.95 in 10.0 mi Calm Calm - N/A   Clear
12:55 PM 71.1 °F - 38.5 °F 31% 29.94 in 10.0 mi SW 5.8 mph - N/A   Clear
1:15 PM 72.1 °F - 38.1 °F 29% 29.94 in 10.0 mi SW 6.9 mph - N/A   Clear
1:35 PM 72.9 °F - 37.6 °F 28% 29.94 in 10.0 mi SSW 5.8 mph - N/A   Clear
1:55 PM 73.9 °F - 37.2 °F 26% 29.92 in 10.0 mi SW 4.6 mph - N/A   Clear
2:15 PM 75.0 °F - 38.5 °F 27% 29.91 in 10.0 mi South 6.9 mph - N/A   Clear
2:35 PM 74.5 °F - 38.1 °F 27% 29.91 in 10.0 mi WSW 3.5 mph - N/A   Clear
2:55 PM 75.9 °F - 37.0 °F 24% 29.90 in 10.0 mi SW 5.8 mph - N/A   Clear
3:15 PM 76.3 °F - 37.8 °F 25% 29.90 in 10.0 mi SW 9.2 mph - N/A   Clear
3:35 PM 77.4 °F - 39.2 °F 25% 29.89 in 10.0 mi SSW 4.6 mph - N/A   Clear
3:55 PM 77.0 °F - 39.4 °F 26% 29.89 in 10.0 mi Calm Calm - N/A   Clear
4:15 PM 78.1 °F - 37.0 °F 23% 29.89 in 7.0 mi West 4.6 mph - N/A   Clear
4:35 PM 78.3 °F - 37.2 °F 23% 29.89 in 10.0 mi WSW 6.9 mph - N/A   Clear
4:55 PM 78.8 °F - 37.6 °F 23% 29.89 in 10.0 mi SW 6.9 mph - N/A   Clear
5:15 PM 77.9 °F - 38.1 °F 24% 29.90 in 10.0 mi West 8.1 mph - N/A   Clear
5:35 PM 77.9 °F - 38.8 °F 25% 29.90 in 10.0 mi West 6.9 mph - N/A   Clear
5:55 PM 77.5 °F - 37.6 °F 24% 29.90 in 10.0 mi West 3.5 mph - N/A   Clear
6:15 PM 76.1 °F - 40.5 °F 28% 29.90 in 10.0 mi West 4.6 mph - N/A   Clear
6:35 PM 73.9 °F - 40.5 °F 30% 29.91 in 10.0 mi West 3.5 mph - N/A   Clear
6:55 PM 72.0 °F - 41.0 °F 33% 29.91 in 10.0 mi Calm Calm - N/A   Clear
7:15 PM 67.8 °F - 41.0 °F 38% 29.91 in 10.0 mi Calm Calm - N/A   Clear
7:35 PM 63.3 °F - 43.3 °F 48% 29.92 in 10.0 mi Calm Calm - N/A   Clear
7:55 PM 57.9 °F - 43.5 °F 59% 29.93 in 10.0 mi Calm Calm - N/A   Clear
8:15 PM 57.4 °F - 43.2 °F 59% 29.94 in 10.0 mi South 3.5 mph - N/A   Clear
8:35 PM 51.4 °F - 42.4 °F 71% 29.95 in 10.0 mi Calm Calm - N/A   Clear
8:55 PM 51.1 °F - 42.4 °F 72% 29.95 in 10.0 mi WSW 5.8 mph - N/A   Clear
9:15 PM 51.8 °F - 43.0 °F 72% 29.96 in 10.0 mi SW 4.6 mph - N/A   Clear
9:35 PM 46.6 °F - 40.8 °F 80% 29.96 in 10.0 mi Calm Calm - N/A   Clear
9:55 PM 46.6 °F - 41.0 °F 81% 29.96 in 10.0 mi SSW 3.5 mph - N/A   Clear
10:15 PM 44.6 °F - 39.7 °F 83% 29.97 in 10.0 mi Calm Calm - N/A   Clear
10:35 PM 45.5 °F - 41.0 °F 84% 29.97 in 10.0 mi Calm Calm - N/A   Clear
10:55 PM 43.5 °F 41.9 °F 39.2 °F 85% 29.97 in 10.0 mi SSW 3.5 mph - N/A   Clear
11:15 PM 42.4 °F - 39.2 °F 88% 29.97 in 10.0 mi Calm Calm - N/A   Clear
11:35 PM 43.9 °F 42.3 °F 40.1 °F 87% 29.97 in 10.0 mi SW 3.5 mph - N/A   Clear
11:55 PM 44.6 °F 42.2 °F 41.2 °F 88% 29.96 in 10.0 mi SW 4.6 mph - N/A   Clear